📊 Raw Sensor Data

Showing records 40001 to 40025 of 84,955 total

ID Distance (ft) Battery V Battery A Int Temp (°F) Int Humid (%) Ext Temp (°F) Solar V RSSI SNR Time Stamp
44967 15.4 3.92 0 89 44 89 5.10 -68 7 06/30/2025 12:15 PM
44966 15.4 3.92 0 88 43 89 5.10 -69 8 06/30/2025 12:00 PM
44965 15.4 3.92 0 87 43 88 5.10 -71 7 06/30/2025 11:45 AM
44964 15.4 4.01 0 86 43 88 5.10 -69 7 06/30/2025 11:30 AM
44963 15.4 3.92 0 84 44 86 5.10 -70 8 06/30/2025 11:15 AM
44962 15.4 4.11 0 83 43 85 5.10 -70 8 06/30/2025 11:00 AM
44961 15.5 3.92 0 82 43 83 5.10 -70 8 06/30/2025 10:45 AM
44960 15.4 3.92 0 82 43 84 5.10 -70 7 06/30/2025 10:30 AM
44959 15.5 3.92 0 80 43 82 5.10 -70 7 06/30/2025 10:15 AM
44958 15.5 3.96 0 80 43 83 5.10 -68 8 06/30/2025 10:00 AM
44957 15.5 4.10 0 79 43 80 5.10 -71 7 06/30/2025 09:45 AM
44956 15.5 4.07 0 77 43 80 5.10 -69 8 06/30/2025 09:30 AM
44955 15.5 3.90 0 76 43 80 5.10 -69 8 06/30/2025 09:15 AM
44954 15.4 3.95 0 75 43 80 5.10 -70 8 06/30/2025 09:00 AM
44953 15.4 3.90 0 73 44 78 5.10 -71 8 06/30/2025 08:45 AM
44952 15.5 3.90 0 72 44 76 5.10 -69 8 06/30/2025 08:30 AM
44951 15.5 3.90 0 71 43 74 5.10 -69 7 06/30/2025 08:15 AM
44950 15.4 3.93 0 69 43 73 5.10 -69 7 06/30/2025 08:00 AM
44949 15.4 3.90 0 68 43 72 5.10 -70 8 06/30/2025 07:45 AM
44948 15.4 3.92 0 67 42 71 5.10 -69 7 06/30/2025 07:30 AM
44947 15.4 3.90 -5 65 42 69 5.10 -69 8 06/30/2025 07:15 AM
44946 15.4 4.05 0 63 42 67 4.50 -70 8 06/30/2025 07:00 AM
44945 15.4 3.82 5 62 42 67 4.50 -69 8 06/30/2025 06:45 AM
44944 15.3 3.79 0 60 42 64 4.50 -70 9 06/30/2025 06:30 AM
44943 15.3 3.75 0 59 43 62 4.50 -68 8 06/30/2025 06:15 AM